#timestamp,LO_Frequency,Hit,StdDev 
1511888415.0,286046992.7,P
1511888415.9,286046992.7,P
1511888435.8,286046992.3,P
1511888455.6,286046994.4,Y
1511888475.4,286047000.0,P
1511888495.3,286046999.2,N
1511888515.1,286046997.7,N
1511888535.8,286046995.0,N
1511888555.7,286047000.8,N
1511888575.5,286046998.9,N
1511888595.3,286046997.1,N
1511888615.2,286046994.7,N
1511888635.9,286046990.2,Y
1511888655.7,286046997.9,P
1511888675.6,286046996.6,P
1511888695.4,286046999.5,N
1511888715.2,286047000.8,N
1511888735.1,286046999.7,N
1511888736.0,286046999.7,N
1511888755.8,286047001.6,N
1511888775.6,286046998.6,N
1511888795.4,286047000.3,N
1511888815.3,286046996.5,N
1511888835.1,286046997.3,N
1511888855.8,286046996.5,N
1511888875.7,286046997.3,N
1511888895.5,286046995.9,N
1511888915.3,286046994.7,Y
1511888935.2,286046991.0,P
1511888955.0,286046994.1,N
1511888955.9,286046994.1,N
1511888975.7,286046997.3,N
1511888995.6,286046999.4,N
1511889015.4,286047001.1,N
1511889035.2,286046996.6,N
1511889055.1,286046995.7,N
1511889056.0,286046995.7,N
1511889075.8,286046993.5,N
1511889095.6,286046995.7,N
1511889115.5,286046994.1,N
1511889135.3,286046995.6,N
1511889155.1,286046995.3,N
1511889175.9,286046999.3,N
1511889195.7,286046999.4,N
1511889215.5,286046998.6,N
1511889235.3,286046996.5,N
1511889255.2,286046998.0,N
1511889275.0,286046990.6,Y
1511889275.9,286046990.6,P
1511889295.7,286046994.4,N
1511889315.6,286046994.6,N
1511889335.4,286046992.4,Y
1511889355.3,286046997.5,P
1511889375.1,286046994.0,P
1511889376.0,286046994.0,P
1511889395.8,286046995.9,N
1511889415.6,286046997.9,N
1511889435.5,286046993.5,Y
1511889455.3,286046999.1,P
1511889475.1,286046999.2,N
1511889495.9,286046995.9,N
1511889515.7,286046996.8,N
1511889535.5,286046996.3,N
1511889555.4,286046993.2,Y
1511889575.2,286046993.4,P
1511889595.0,286046991.4,P
1511889596.0,286046991.4,P
1511889615.8,286046991.5,Y
1511889635.6,286046996.5,P
1511889655.5,286047000.8,N
1511889675.3,286047002.4,N
1511889695.1,286047002.3,N
1511889715.8,286047001.5,N
1511889735.7,286046998.1,N
1511889755.5,286046994.9,N
1511889775.3,286046996.5,N
1511889795.2,286047001.0,N
1511889815.9,286046999.3,N
1511889835.7,286046995.4,N
1511889855.6,286046995.3,N
1511889875.4,286046994.5,N
1511889895.2,286046988.6,Y
1511889915.1,286046994.6,P
1511889916.0,286046994.6,P
1511889935.8,286046993.1,P
1511889955.6,286046990.4,Y
1511889975.5,286046995.0,P
1511889995.3,286046992.9,P
1511890015.1,286046991.2,P
1511890035.9,286046990.4,Y
1511890055.7,286046992.2,P
1511890075.5,286046991.6,P
1511890095.4,286046992.1,P
1511890115.2,286046994.7,Y
1511890135.0,286047003.0,P
1511890135.9,286047003.0,N
1511890155.8,286047004.9,N
1511890175.6,286047000.4,N
1511890195.4,286046999.5,N
1511890215.3,286046998.5,N
1511890235.1,286046999.5,N
1511890236.0,286046999.5,N
1511890255.8,286046997.6,N
1511890275.7,286046997.7,N
1511890295.5,286046995.4,N
1511890315.3,286046988.8,Y
1511890335.2,286046990.7,P
1511890355.9,286046993.1,N
1511890375.7,286046992.3,N
1511890395.5,286046992.6,N
1511890415.4,286046988.9,Y
1511890435.2,286046995.2,P
1511890455.0,286046994.2,P
1511890456.0,286046994.2,P
1511890475.8,286046993.8,Y
1511890495.6,286047002.5,P
1511890515.5,286047002.5,N
1511890535.3,286047002.8,N
1511890555.1,286046996.5,N
1511890575.8,286046995.2,N
1511890595.7,286046992.2,N
1511890615.5,286046994.8,N
1511890635.3,286046992.1,N
1511890655.2,286046992.9,N
1511890675.9,286046993.3,N
1511890695.7,286046996.4,N
1511890715.6,286046994.9,N
1511890735.4,286046998.0,N
1511890755.2,286046995.4,N
1511890775.1,286046993.8,N
1511890776.0,286046993.8,N
1511890795.8,286046995.0,N
1511890815.6,286046997.3,N
1511890835.5,286046996.7,N
1511890855.3,286046996.9,N
1511890875.1,286047002.8,N
1511890895.8,286047001.9,N
1511890915.7,286047001.0,N
1511890935.5,286046999.5,N
1511890955.3,286047000.7,N
1511890975.2,286047002.0,N
1511890995.9,286047005.1,N
1511891015.7,286047006.6,N
1511891035.6,286047004.9,N
1511891055.4,286047008.9,N
1511891075.2,286047004.6,N
1511891095.1,286047008.1,N
1511891096.0,286047008.1,N
1511891115.8,286047012.4,N
1511891135.6,286047011.0,N
1511891155.5,286047013.4,N
1511891175.3,286047011.6,N
1511891195.1,286047009.9,N
1511891215.9,286047012.4,N
1511891235.7,286047006.3,N
1511891255.5,286047006.8,N
1511891275.4,286047007.7,N
1511891295.2,286047010.9,N
1511891315.0,286047014.0,N
1511891315.9,286047014.0,N
1511891335.8,286047008.7,N
1511891355.6,286047006.3,N
1511891375.4,286047002.9,N
1511891395.3,286047005.3,N
1511891415.1,286047001.9,N
1511891416.0,286047001.9,N
1511891435.8,286047000.1,N
1511891455.7,286047003.7,N
1511891475.5,286047004.2,N
1511891495.3,286047001.8,N
1511891515.2,286047001.0,N
1511891535.9,286047006.0,N
1511891555.7,286046999.8,N
1511891575.5,286047008.7,N
1511891595.4,286047011.1,N
1511891615.2,286047013.1,Y
1511891635.0,286047006.8,P
1511891635.9,286047006.8,P
1511891655.8,286047003.0,P
1511891675.6,286046997.7,N
1511891695.4,286046992.2,N
1511891715.3,286046988.6,N
1511891735.1,286046994.8,N
1511891755.8,286046993.1,N
1511891775.7,286046995.2,N
1511891795.5,286046999.4,N
1511891815.3,286046998.7,N
1511891835.2,286047004.6,N
1511891855.9,286047005.6,N
1511891875.7,286047002.9,N
1511891895.6,286047005.9,N
1511891915.4,286047007.2,N
1511891935.2,286047007.9,N
1511891955.0,286047013.9,N
1511891955.9,286047013.9,N
1511891975.8,286047014.7,N
1511891995.6,286047014.7,N
